Time,TemperatureF,DewpointF,PressureIn,WindDirection,WindDirectionDegrees,WindSpeedMPH,WindSpeedGustMPH,Humidity,HourlyPrecipIn,Conditions,Clouds,dailyrainin,SoftwareType,DateUTC
2013-06-17 00:01:00,32.0,32.0,30.06,East,90,2.0,3.4,0,0.00,,,0.00,Graphweather,2013-06-17 04:01:00,
2013-06-17 00:02:00,32.0,32.0,30.06,SSE,157,2.7,2.7,0,0.00,,,0.00,Graphweather,2013-06-17 04:02:00,
2013-06-17 00:05:00,32.0,32.0,30.06,SSE,157,2.9,2.9,0,0.00,,,0.00,Graphweather,2013-06-17 04:05:00,
2013-06-17 00:06:00,32.0,32.0,30.06,SE,135,4.0,4.0,0,0.00,,,0.00,Graphweather,2013-06-17 04:06:00,
2013-06-17 00:11:00,32.0,32.0,30.06,ESE,112,3.1,3.8,0,0.00,,,0.00,Graphweather,2013-06-17 04:11:00,
2013-06-17 00:12:00,32.0,32.0,30.06,ESE,112,3.6,3.6,0,0.00,,,0.00,Graphweather,2013-06-17 04:12:00,
2013-06-17 00:17:00,32.0,32.0,30.06,West,270,3.6,6.3,0,0.00,,,0.00,Graphweather,2013-06-17 04:17:00,
2013-06-17 00:22:00,32.0,32.0,30.06,SSE,157,3.1,3.1,0,0.00,,,0.00,Graphweather,2013-06-17 04:22:00,
2013-06-17 00:27:00,32.0,32.0,30.06,South,180,3.4,0.0,0,0.00,,,0.00,Graphweather,2013-06-17 04:27:00,
2013-06-17 00:32:00,32.0,32.0,30.06,ESE,112,2.9,3.6,0,0.00,,,0.00,Graphweather,2013-06-17 04:32:00,
2013-06-17 00:37:00,32.0,32.0,30.03,East,90,3.1,3.1,0,0.00,,,0.00,Graphweather,2013-06-17 04:37:00,
2013-06-17 00:42:00,32.0,32.0,30.03,ENE,67,3.4,3.8,0,0.00,,,0.00,Graphweather,2013-06-17 04:42:00,
2013-06-17 00:47:00,32.0,32.0,30.03,SSE,157,3.1,3.4,0,0.00,,,0.00,Graphweather,2013-06-17 04:47:00,
2013-06-17 00:52:00,32.0,32.0,30.06,SSW,202,3.4,0.0,0,0.00,,,0.00,Graphweather,2013-06-17 04:52:00,
2013-06-17 00:57:00,32.0,32.0,30.06,East,90,3.4,6.9,0,0.00,,,0.00,Graphweather,2013-06-17 04:57:00,
2013-06-17 01:02:00,32.0,32.0,30.06,East,90,3.8,3.8,0,0.00,,,0.00,Graphweather,2013-06-17 05:02:00,
2013-06-17 01:07:00,32.0,32.0,30.06,East,90,2.7,3.1,0,0.00,,,0.00,Graphweather,2013-06-17 05:07:00,
2013-06-17 01:13:00,32.0,32.0,30.06,ESE,112,2.9,3.1,0,0.00,,,0.00,Graphweather,2013-06-17 05:13:00,
2013-06-17 01:18:00,32.0,32.0,30.06,SSE,157,2.5,4.9,0,0.00,,,0.00,Graphweather,2013-06-17 05:18:00,
2013-06-17 01:23:00,32.0,32.0,30.06,SSE,157,3.1,3.1,0,0.00,,,0.00,Graphweather,2013-06-17 05:23:00,
2013-06-17 01:28:00,32.0,32.0,30.06,ESE,112,3.4,3.6,0,0.00,,,0.00,Graphweather,2013-06-17 05:28:00,
2013-06-17 01:33:00,32.0,32.0,30.06,East,90,3.4,3.8,0,0.00,,,0.00,Graphweather,2013-06-17 05:33:00,
2013-06-17 01:38:00,32.0,32.0,30.06,SSE,157,3.1,3.1,0,0.00,,,0.00,Graphweather,2013-06-17 05:38:00,
2013-06-17 01:43:00,32.0,32.0,30.06,SSW,202,3.6,3.6,0,0.00,,,0.00,Graphweather,2013-06-17 05:43:00,
2013-06-17 01:48:00,32.0,32.0,30.06,ESE,112,2.9,2.9,0,0.00,,,0.00,Graphweather,2013-06-17 05:48:00,
2013-06-17 01:53:00,32.0,32.0,30.06,WSW,247,3.1,3.6,0,0.00,,,0.00,Graphweather,2013-06-17 05:53:00,
2013-06-17 01:58:00,32.0,32.0,30.06,East,90,2.2,0.0,0,0.00,,,0.00,Graphweather,2013-06-17 05:58:00,
2013-06-17 02:03:00,32.0,32.0,30.06,East,90,3.4,3.4,0,0.00,,,0.00,Graphweather,2013-06-17 06:03:00,
2013-06-17 02:08:00,32.0,32.0,30.03,SSW,202,2.9,4.3,0,0.00,,,0.00,Graphweather,2013-06-17 06:08:00,
2013-06-17 02:13:00,32.0,32.0,30.03,NNE,22,2.9,0.0,0,0.00,,,0.00,Graphweather,2013-06-17 06:13:00,
2013-06-17 02:18:00,32.0,32.0,30.03,NNW,337,2.9,3.1,0,0.00,,,0.00,Graphweather,2013-06-17 06:18:00,
2013-06-17 02:23:00,32.0,32.0,30.06,East,90,2.0,0.0,0,0.00,,,0.00,Graphweather,2013-06-17 06:23:00,
2013-06-17 02:28:00,32.0,32.0,30.06,SE,135,2.2,2.5,0,0.00,,,0.00,Graphweather,2013-06-17 06:28:00,
2013-06-17 02:33:00,32.0,32.0,30.06,WSW,247,2.9,4.3,0,0.00,,,0.00,Graphweather,2013-06-17 06:33:00,
2013-06-17 02:38:00,32.0,32.0,30.06,ESE,112,3.4,3.4,0,0.00,,,0.00,Graphweather,2013-06-17 06:38:00,
2013-06-17 02:44:00,32.0,32.0,30.06,ENE,67,2.0,0.0,0,0.00,,,0.00,Graphweather,2013-06-17 06:44:00,
2013-06-17 02:49:00,32.0,32.0,30.06,SE,135,2.9,2.9,0,0.00,,,0.00,Graphweather,2013-06-17 06:49:00,
2013-06-17 02:54:00,32.0,32.0,30.06,SW,225,3.4,5.8,0,0.00,,,0.00,Graphweather,2013-06-17 06:54:00,
2013-06-17 02:59:00,32.0,32.0,30.06,ESE,112,2.9,2.9,0,0.00,,,0.00,Graphweather,2013-06-17 06:59:00,
2013-06-17 03:04:00,32.0,32.0,30.06,SE,135,3.4,5.8,0,0.00,,,0.00,Graphweather,2013-06-17 07:04:00,
2013-06-17 03:09:00,32.0,32.0,30.03,ESE,112,3.1,3.1,0,0.00,,,0.00,Graphweather,2013-06-17 07:09:00,
2013-06-17 03:14:00,32.0,32.0,30.03,SE,135,2.5,0.0,0,0.00,,,0.00,Graphweather,2013-06-17 07:14:00,
2013-06-17 03:19:00,32.0,32.0,30.03,NE,45,2.5,4.7,0,0.00,,,0.00,Graphweather,2013-06-17 07:19:00,
2013-06-17 03:24:00,32.0,32.0,30.03,WSW,247,2.5,0.0,0,0.00,,,0.00,Graphweather,2013-06-17 07:24:00,
2013-06-17 03:29:00,32.0,32.0,30.03,ESE,112,2.7,2.9,0,0.00,,,0.00,Graphweather,2013-06-17 07:29:00,
2013-06-17 03:34:00,32.0,32.0,30.03,SSE,157,2.7,2.7,0,0.00,,,0.00,Graphweather,2013-06-17 07:34:00,
2013-06-17 03:39:00,32.0,32.0,30.03,WSW,247,4.3,0.0,0,0.00,,,0.00,Graphweather,2013-06-17 07:39:00,
2013-06-17 03:45:00,32.0,32.0,30.03,NE,45,2.7,2.9,0,0.00,,,0.00,Graphweather,2013-06-17 07:45:00,
2013-06-17 03:50:00,32.0,32.0,30.03,East,90,3.1,0.0,0,0.00,,,0.00,Graphweather,2013-06-17 07:50:00,
2013-06-17 03:55:00,32.0,32.0,30.06,ENE,67,3.6,5.6,0,0.00,,,0.00,Graphweather,2013-06-17 07:55:00,
2013-06-17 04:00:00,32.0,32.0,30.06,NE,45,3.1,4.0,0,0.00,,,0.00,Graphweather,2013-06-17 08:00:00,
2013-06-17 04:05:00,32.0,32.0,30.06,SE,135,2.9,3.1,0,0.00,,,0.00,Graphweather,2013-06-17 08:05:00,
2013-06-17 04:10:00,32.0,32.0,30.06,SSE,157,3.1,0.0,0,0.00,,,0.00,Graphweather,2013-06-17 08:10:00,
2013-06-17 04:15:00,32.0,32.0,30.06,SSW,202,3.1,4.9,0,0.00,,,0.00,Graphweather,2013-06-17 08:15:00,
2013-06-17 04:20:00,32.0,32.0,30.06,ESE,112,3.6,3.6,0,0.00,,,0.00,Graphweather,2013-06-17 08:20:00,
2013-06-17 04:25:00,32.0,32.0,30.06,ESE,112,3.1,3.1,0,0.00,,,0.00,Graphweather,2013-06-17 08:25:00,
2013-06-17 04:31:00,32.0,32.0,30.06,SW,225,3.4,3.4,0,0.00,,,0.00,Graphweather,2013-06-17 08:31:00,
2013-06-17 04:36:00,32.0,32.0,30.06,East,90,3.6,5.4,0,0.00,,,0.00,Graphweather,2013-06-17 08:36:00,
2013-06-17 04:41:00,32.0,32.0,30.06,East,90,2.7,3.4,0,0.00,,,0.00,Graphweather,2013-06-17 08:41:00,
2013-06-17 04:46:00,32.0,32.0,30.06,SSE,157,2.5,2.7,0,0.00,,,0.00,Graphweather,2013-06-17 08:46:00,
2013-06-17 04:51:00,32.0,32.0,30.06,ESE,112,3.1,0.0,0,0.00,,,0.00,Graphweather,2013-06-17 08:51:00,
2013-06-17 04:56:00,32.0,32.0,30.06,ESE,112,2.9,2.9,0,0.00,,,0.00,Graphweather,2013-06-17 08:56:00,
2013-06-17 05:01:00,32.0,32.0,30.06,ESE,112,2.5,2.5,0,0.00,,,0.00,Graphweather,2013-06-17 09:01:00,
2013-06-17 05:06:00,32.0,32.0,30.06,South,180,1.6,3.4,0,0.00,,,0.00,Graphweather,2013-06-17 09:06:00,
2013-06-17 05:11:00,32.0,32.0,30.06,East,90,2.5,3.1,0,0.00,,,0.00,Graphweather,2013-06-17 09:11:00,
2013-06-17 05:16:00,32.0,32.0,30.06,SSW,202,3.1,0.0,0,0.00,,,0.00,Graphweather,2013-06-17 09:16:00,
2013-06-17 05:21:00,32.0,32.0,30.03,ESE,112,2.2,2.7,0,0.00,,,0.00,Graphweather,2013-06-17 09:21:00,
2013-06-17 05:26:00,32.0,32.0,30.03,NNE,22,2.5,0.0,0,0.00,,,0.00,Graphweather,2013-06-17 09:26:00,
2013-06-17 05:31:00,32.0,32.0,30.03,WNW,292,2.7,3.8,0,0.00,,,0.00,Graphweather,2013-06-17 09:31:00,
2013-06-17 05:37:00,32.0,32.0,30.03,East,90,1.6,4.7,0,0.00,,,0.00,Graphweather,2013-06-17 09:37:00,
2013-06-17 05:42:00,32.0,32.0,30.03,SSE,157,2.7,3.4,0,0.00,,,0.00,Graphweather,2013-06-17 09:42:00,
2013-06-17 05:47:00,32.0,32.0,30.03,ENE,67,3.8,0.0,0,0.00,,,0.00,Graphweather,2013-06-17 09:47:00,
2013-06-17 05:52:00,32.0,32.0,30.06,NE,45,3.1,0.0,0,0.00,,,0.00,Graphweather,2013-06-17 09:52:00,
2013-06-17 05:57:00,32.0,32.0,30.06,WNW,292,2.7,2.7,0,0.00,,,0.00,Graphweather,2013-06-17 09:57:00,
2013-06-17 06:02:00,32.0,32.0,30.06,East,90,3.1,5.8,0,0.00,,,0.00,Graphweather,2013-06-17 10:02:00,
2013-06-17 06:07:00,32.0,32.0,30.06,SSE,157,2.5,3.1,0,0.00,,,0.00,Graphweather,2013-06-17 10:07:00,
2013-06-17 06:12:00,32.0,32.0,30.06,SSE,157,3.6,6.3,0,0.00,,,0.00,Graphweather,2013-06-17 10:12:00,
2013-06-17 06:17:00,32.0,32.0,30.06,SSW,202,2.2,0.0,0,0.00,,,0.00,Graphweather,2013-06-17 10:17:00,
2013-06-17 06:22:00,32.0,32.0,30.06,NNE,22,2.7,0.0,0,0.00,,,0.00,Graphweather,2013-06-17 10:22:00,
2013-06-17 06:27:00,32.0,32.0,30.06,East,90,3.1,3.1,0,0.00,,,0.00,Graphweather,2013-06-17 10:27:00,
2013-06-17 06:32:00,32.0,32.0,30.06,East,90,3.8,4.0,0,0.00,,,0.00,Graphweather,2013-06-17 10:32:00,
2013-06-17 06:37:00,32.0,32.0,30.09,NNE,22,3.8,0.0,0,0.00,,,0.00,Graphweather,2013-06-17 10:37:00,
2013-06-17 06:43:00,32.0,32.0,30.09,NE,45,3.4,3.4,0,0.00,,,0.00,Graphweather,2013-06-17 10:43:00,
2013-06-17 06:48:00,32.0,32.0,30.09,SSE,157,2.7,3.6,0,0.00,,,0.00,Graphweather,2013-06-17 10:48:00,
2013-06-17 06:53:00,32.0,32.0,30.06,NNE,22,3.8,5.6,0,0.00,,,0.00,Graphweather,2013-06-17 10:53:00,
2013-06-17 06:58:00,32.0,32.0,30.06,SE,135,5.4,5.4,0,0.00,,,0.00,Graphweather,2013-06-17 10:58:00,
2013-06-17 07:03:00,32.0,32.0,30.06,SE,135,3.1,3.1,0,0.00,,,0.00,Graphweather,2013-06-17 11:03:00,
2013-06-17 07:08:00,32.0,32.0,30.03,SSW,202,3.1,3.6,0,0.00,,,0.00,Graphweather,2013-06-17 11:08:00,
2013-06-17 07:13:00,32.0,32.0,30.03,ESE,112,2.9,5.6,0,0.00,,,0.00,Graphweather,2013-06-17 11:13:00,
2013-06-17 07:18:00,32.0,32.0,30.03,NNW,337,2.7,2.9,0,0.00,,,0.00,Graphweather,2013-06-17 11:18:00,
2013-06-17 07:24:00,32.0,32.0,30.06,North,0,3.4,3.6,0,0.00,,,0.00,Graphweather,2013-06-17 11:24:00,
2013-06-17 07:29:00,32.0,32.0,30.06,ESE,112,3.6,6.0,0,0.00,,,0.00,Graphweather,2013-06-17 11:29:00,
2013-06-17 07:34:00,32.0,32.0,30.06,ENE,67,3.1,3.1,0,0.00,,,0.00,Graphweather,2013-06-17 11:34:00,
2013-06-17 07:39:00,32.0,32.0,30.06,East,90,3.4,0.0,0,0.00,,,0.00,Graphweather,2013-06-17 11:39:00,
2013-06-17 07:44:00,32.0,32.0,30.06,WSW,247,4.0,4.9,0,0.00,,,0.00,Graphweather,2013-06-17 11:44:00,
2013-06-17 07:49:00,32.0,32.0,30.06,SSW,202,3.1,0.0,0,0.00,,,0.00,Graphweather,2013-06-17 11:49:00,
2013-06-17 07:54:00,32.0,32.0,30.06,South,180,3.6,3.8,0,0.00,,,0.00,Graphweather,2013-06-17 11:54:00,
2013-06-17 07:59:00,32.0,32.0,30.06,ESE,112,3.6,5.4,0,0.00,,,0.00,Graphweather,2013-06-17 11:59:00,
2013-06-17 08:05:00,32.0,32.0,30.06,East,90,2.7,0.0,0,0.00,,,0.00,Graphweather,2013-06-17 12:05:00,
2013-06-17 08:10:00,32.0,32.0,30.06,NW,315,3.1,3.6,0,0.00,,,0.00,Graphweather,2013-06-17 12:10:00,
2013-06-17 08:15:00,32.0,32.0,30.06,West,270,2.7,2.7,0,0.00,,,0.00,Graphweather,2013-06-17 12:15:00,
2013-06-17 08:20:00,32.0,32.0,30.06,East,90,2.9,2.9,0,0.00,,,0.00,Graphweather,2013-06-17 12:20:00,
2013-06-17 08:25:00,32.0,32.0,30.06,SSE,157,2.5,2.9,0,0.00,,,0.00,Graphweather,2013-06-17 12:25:00,
2013-06-17 08:30:00,32.0,32.0,30.06,East,90,3.4,3.8,0,0.00,,,0.00,Graphweather,2013-06-17 12:30:00,
2013-06-17 08:36:00,32.0,32.0,30.06,SE,135,2.2,3.6,0,0.00,,,0.00,Graphweather,2013-06-17 12:36:00,
2013-06-17 08:41:00,32.0,32.0,30.06,SSE,157,3.4,4.0,0,0.00,,,0.00,Graphweather,2013-06-17 12:41:00,
2013-06-17 08:46:00,32.0,32.0,30.06,East,90,3.1,3.6,0,0.00,,,0.00,Graphweather,2013-06-17 12:46:00,
2013-06-17 08:51:00,32.0,32.0,30.06,East,90,3.4,3.8,0,0.00,,,0.00,Graphweather,2013-06-17 12:51:00,
2013-06-17 08:57:00,32.0,32.0,30.06,SSE,157,2.9,4.0,0,0.00,,,0.00,Graphweather,2013-06-17 12:57:00,
2013-06-17 09:02:00,32.0,32.0,30.06,East,90,2.7,0.0,0,0.00,,,0.00,Graphweather,2013-06-17 13:02:00,
2013-06-17 09:07:00,32.0,32.0,30.06,SSE,157,3.4,3.4,0,0.00,,,0.00,Graphweather,2013-06-17 13:07:00,
2013-06-17 09:13:00,32.0,32.0,30.06,WNW,292,3.6,3.6,0,0.00,,,0.00,Graphweather,2013-06-17 13:13:00,
2013-06-17 09:18:00,32.0,32.0,30.06,East,90,3.4,3.8,0,0.00,,,0.00,Graphweather,2013-06-17 13:18:00,
2013-06-17 09:23:00,32.0,32.0,30.06,SSE,157,3.8,3.8,0,0.00,,,0.00,Graphweather,2013-06-17 13:23:00,
2013-06-17 09:28:00,32.0,32.0,30.06,SE,135,3.4,4.9,0,0.00,,,0.00,Graphweather,2013-06-17 13:28:00,
2013-06-17 09:34:00,32.0,32.0,30.06,SE,135,3.6,4.7,0,0.00,,,0.00,Graphweather,2013-06-17 13:34:00,
2013-06-17 09:39:00,32.0,32.0,30.06,SE,135,3.1,0.0,0,0.00,,,0.00,Graphweather,2013-06-17 13:39:00,
2013-06-17 09:44:00,32.0,32.0,30.06,SW,225,4.3,4.3,0,0.00,,,0.00,Graphweather,2013-06-17 13:44:00,
2013-06-17 09:49:00,32.0,32.0,30.06,East,90,2.9,4.9,0,0.00,,,0.00,Graphweather,2013-06-17 13:49:00,
2013-06-17 09:54:00,32.0,32.0,30.06,South,180,4.3,0.0,0,0.00,,,0.00,Graphweather,2013-06-17 13:54:00,
2013-06-17 09:59:00,32.0,32.0,30.06,SE,135,2.5,3.8,0,0.00,,,0.00,Graphweather,2013-06-17 13:59:00,
2013-06-17 10:04:00,32.0,32.0,30.06,SE,135,4.0,4.0,0,0.00,,,0.00,Graphweather,2013-06-17 14:04:00,
2013-06-17 10:09:00,32.0,32.0,30.06,NE,45,4.0,4.0,0,0.00,,,0.00,Graphweather,2013-06-17 14:09:00,
2013-06-17 10:14:00,32.0,32.0,30.06,North,0,3.4,0.0,0,0.00,,,0.00,Graphweather,2013-06-17 14:14:00,
2013-06-17 10:20:00,32.0,32.0,30.06,SSW,202,3.8,3.8,0,0.00,,,0.00,Graphweather,2013-06-17 14:20:00,
2013-06-17 10:25:00,32.0,32.0,30.06,East,90,3.6,3.6,0,0.00,,,0.00,Graphweather,2013-06-17 14:25:00,
2013-06-17 10:30:00,32.0,32.0,30.06,East,90,3.4,3.6,0,0.00,,,0.00,Graphweather,2013-06-17 14:30:00,
2013-06-17 10:35:00,32.0,32.0,30.06,ESE,112,3.4,4.9,0,0.00,,,0.00,Graphweather,2013-06-17 14:35:00,
2013-06-17 10:40:00,32.0,32.0,30.06,ESE,112,4.3,4.3,0,0.00,,,0.00,Graphweather,2013-06-17 14:40:00,
2013-06-17 10:45:00,32.0,32.0,30.06,East,90,3.1,3.6,0,0.00,,,0.00,Graphweather,2013-06-17 14:45:00,
2013-06-17 10:50:00,32.0,32.0,30.06,East,90,3.8,4.9,0,0.00,,,0.00,Graphweather,2013-06-17 14:50:00,
2013-06-17 18:37:00,32.0,32.0,30.06,North,0,3.1,0.0,0,0.00,,,0.00,Graphweather,2013-06-17 22:37:00,
2013-06-17 18:42:00,32.0,32.0,30.06,NW,315,3.6,3.6,0,0.00,,,0.00,Graphweather,2013-06-17 22:42:00,
2013-06-17 18:47:00,32.0,32.0,30.06,NNW,337,3.4,3.4,0,0.00,,,0.00,Graphweather,2013-06-17 22:47:00,
2013-06-17 19:16:00,84.7,77.0,30.06,ENE,67,4.0,4.0,76,0.00,,,0.00,Graphweather,2013-06-17 23:16:00,
2013-06-17 19:22:00,81.5,77.0,30.06,ENE,67,3.8,4.7,82,0.00,,,0.00,Graphweather,2013-06-17 23:22:00,
2013-06-17 19:27:00,81.5,77.0,30.06,East,90,3.4,0.0,82,0.00,,,0.00,Graphweather,2013-06-17 23:27:00,
2013-06-17 19:32:00,80.1,75.2,30.06,NNE,22,4.0,4.0,86,0.00,,,0.00,Graphweather,2013-06-17 23:32:00,
2013-06-17 19:37:00,79.9,77.0,30.06,NE,45,2.9,4.7,87,0.00,,,0.00,Graphweather,2013-06-17 23:37:00,
2013-06-17 19:43:00,79.7,77.0,30.06,ESE,112,3.6,4.9,87,0.00,,,0.00,Graphweather,2013-06-17 23:43:00,
2013-06-17 19:48:00,79.5,75.2,30.06,SSW,202,4.0,4.0,87,0.00,,,0.00,Graphweather,2013-06-17 23:48:00,
2013-06-17 19:53:00,79.5,75.2,30.06,ESE,112,3.4,4.0,87,0.00,,,0.00,Graphweather,2013-06-17 23:53:00,
2013-06-17 19:58:00,79.3,75.2,30.06,SSE,157,3.1,3.4,88,0.00,,,0.00,Graphweather,2013-06-17 23:58:00,
2013-06-17 20:03:00,79.3,75.2,30.06,ESE,112,3.6,5.8,88,0.00,,,0.00,Graphweather,2013-06-18 00:03:00,
2013-06-17 20:09:00,79.3,77.0,30.03,ESE,112,2.7,2.7,89,0.00,,,0.00,Graphweather,2013-06-18 00:09:00,
2013-06-17 20:14:00,79.2,77.0,30.03,SE,135,2.9,3.8,89,0.00,,,0.00,Graphweather,2013-06-18 00:14:00,
2013-06-17 20:19:00,79.2,77.0,30.03,East,90,3.4,8.1,89,0.00,,,0.00,Graphweather,2013-06-18 00:19:00,
2013-06-17 20:24:00,79.2,77.0,30.06,NE,45,4.9,8.7,89,0.00,,,0.00,Graphweather,2013-06-18 00:24:00,
2013-06-17 20:29:00,79.2,77.0,30.06,SSE,157,3.4,6.0,89,0.00,,,0.00,Graphweather,2013-06-18 00:29:00,
2013-06-17 20:35:00,79.2,77.0,30.06,East,90,2.7,3.4,90,0.00,,,0.00,Graphweather,2013-06-18 00:35:00,
2013-06-17 20:40:00,79.2,77.0,30.03,ESE,112,3.8,6.0,89,0.00,,,0.00,Graphweather,2013-06-18 00:40:00,
2013-06-17 20:45:00,79.2,77.0,30.03,South,180,3.4,3.8,89,0.00,,,0.00,Graphweather,2013-06-18 00:45:00,
2013-06-17 20:50:00,79.2,77.0,30.03,SE,135,3.4,3.6,90,0.00,,,0.00,Graphweather,2013-06-18 00:50:00,
2013-06-17 20:55:00,79.2,77.0,30.03,ESE,112,4.5,6.3,89,0.00,,,0.00,Graphweather,2013-06-18 00:55:00,
2013-06-17 21:01:00,79.2,77.0,30.03,ENE,67,4.5,8.5,89,0.00,,,0.00,Graphweather,2013-06-18 01:01:00,
2013-06-17 21:06:00,79.2,77.0,30.06,SE,135,3.1,3.6,89,0.00,,,0.00,Graphweather,2013-06-18 01:06:00,
2013-06-17 21:11:00,79.0,75.2,30.06,North,0,4.3,6.0,90,0.00,,,0.00,Graphweather,2013-06-18 01:11:00,
2013-06-17 21:17:00,79.0,75.2,30.06,SSE,157,2.9,3.6,90,0.00,,,0.00,Graphweather,2013-06-18 01:17:00,
2013-06-17 21:22:00,79.0,75.2,30.03,North,0,4.0,4.0,90,0.00,,,0.00,Graphweather,2013-06-18 01:22:00,
2013-06-17 21:27:00,79.0,75.2,30.03,SW,225,3.4,3.4,90,0.00,,,0.00,Graphweather,2013-06-18 01:27:00,
2013-06-17 21:32:00,79.0,75.2,30.03,North,0,4.5,4.9,89,0.00,,,0.00,Graphweather,2013-06-18 01:32:00,
2013-06-17 21:37:00,79.0,75.2,30.06,NW,315,3.1,3.8,90,0.00,,,0.00,Graphweather,2013-06-18 01:37:00,
2013-06-17 21:43:00,79.0,75.2,30.06,NNE,22,4.0,4.0,90,0.00,,,0.00,Graphweather,2013-06-18 01:43:00,
2013-06-17 21:48:00,79.0,75.2,30.06,South,180,3.4,3.8,90,0.00,,,0.00,Graphweather,2013-06-18 01:48:00,
2013-06-17 21:53:00,79.0,75.2,30.06,SSW,202,4.9,6.7,90,0.00,,,0.00,Graphweather,2013-06-18 01:53:00,
2013-06-17 21:58:00,79.0,75.2,30.06,ESE,112,3.8,6.0,90,0.00,,,0.00,Graphweather,2013-06-18 01:58:00,
2013-06-17 22:04:00,79.0,75.2,30.06,NE,45,3.6,3.6,90,0.00,,,0.00,Graphweather,2013-06-18 02:04:00,
2013-06-17 22:09:00,79.0,77.0,30.03,ESE,112,4.0,7.2,91,0.00,,,0.00,Graphweather,2013-06-18 02:09:00,
2013-06-17 22:14:00,79.0,77.0,30.03,SE,135,4.3,4.3,91,0.00,,,0.00,Graphweather,2013-06-18 02:14:00,
2013-06-17 22:19:00,79.0,75.2,30.03,East,90,3.6,6.0,90,0.00,,,0.00,Graphweather,2013-06-18 02:19:00,
2013-06-17 22:24:00,79.0,75.2,30.03,SE,135,3.4,6.0,89,0.00,,,0.00,Graphweather,2013-06-18 02:24:00,
2013-06-17 22:29:00,78.8,75.2,30.03,East,90,2.7,3.1,90,0.00,,,0.00,Graphweather,2013-06-18 02:29:00,
2013-06-17 22:35:00,78.8,77.0,30.03,South,180,2.7,3.6,91,0.00,,,0.00,Graphweather,2013-06-18 02:35:00,
2013-06-17 22:40:00,79.0,77.0,30.06,SSW,202,2.9,4.3,92,0.00,,,0.00,Graphweather,2013-06-18 02:40:00,
2013-06-17 22:45:00,78.8,75.2,30.06,ESE,112,2.9,3.1,90,0.00,,,0.00,Graphweather,2013-06-18 02:45:00,
2013-06-17 22:50:00,79.0,75.2,30.06,ENE,67,3.8,3.8,89,0.00,,,0.00,Graphweather,2013-06-18 02:50:00,
2013-06-17 22:55:00,79.0,75.2,30.03,ESE,112,3.6,5.6,90,0.00,,,0.00,Graphweather,2013-06-18 02:55:00,
2013-06-17 23:00:00,79.0,75.2,30.03,SSE,157,2.9,3.1,90,0.00,,,0.00,Graphweather,2013-06-18 03:00:00,
2013-06-17 23:06:00,78.8,75.2,30.03,ENE,67,3.1,3.1,90,0.00,,,0.00,Graphweather,2013-06-18 03:06:00,
2013-06-17 23:11:00,78.8,77.0,30.06,ESE,112,3.1,5.8,91,0.00,,,0.00,Graphweather,2013-06-18 03:11:00,
2013-06-17 23:16:00,79.0,77.0,30.06,East,90,4.7,5.8,92,0.00,,,0.00,Graphweather,2013-06-18 03:16:00,
2013-06-17 23:21:00,78.8,77.0,30.06,East,90,3.4,3.6,92,0.00,,,0.00,Graphweather,2013-06-18 03:21:00,
2013-06-17 23:26:00,78.8,77.0,30.06,North,0,2.9,3.6,91,0.00,,,0.00,Graphweather,2013-06-18 03:26:00,
2013-06-17 23:31:00,78.8,77.0,30.06,SW,225,3.6,4.3,91,0.00,,,0.00,Graphweather,2013-06-18 03:31:00,
2013-06-17 23:36:00,79.0,77.0,30.09,SE,135,3.1,3.6,91,0.00,,,0.00,Graphweather,2013-06-18 03:36:00,
2013-06-17 23:41:00,79.0,77.0,30.09,SE,135,3.4,4.3,91,0.00,,,0.00,Graphweather,2013-06-18 03:41:00,
2013-06-17 23:47:00,79.0,77.0,30.09,SE,135,2.7,6.3,92,0.00,,,0.00,Graphweather,2013-06-18 03:47:00,
2013-06-17 23:52:00,79.0,77.0,30.06,East,90,2.9,4.3,91,0.00,,,0.00,Graphweather,2013-06-18 03:52:00,
2013-06-17 23:57:00,78.8,75.2,30.06,ESE,112,2.9,3.6,89,0.00,,,0.00,Graphweather,2013-06-18 03:57:00,